Find Arabsat IIB

NORAD ID: 24652 Int'l Des: 1996-063 Owner: ARAB Country: I-ARAB operational
HEOCIRCULAR

Live Position

Loading 3D Globe...

About Arabsat IIB

Description loading...

Upcoming Passes

Passes for default location (London). Set your location on the main map for personalized predictions.

Altitude History

Loading altitude history...

Two-Line Element Set

1 24652U 96063A 26110.42809346 -.00000002 00000-0 00000+0 0 9991
2 24652 10.4645 49.3317 0001051 8.4854 201.8606 0.99408855107889
Epoch: Apr 20, 2026 • Age: 14 hours

Current Status

Altitude 36026.7 km
Velocity 3.07 km/s
Sub-Earth Point 9.58°N, 105.17°W
Launch Date Nov 13, 1996
Age 29.4 years
Type other

Technical Details

Classification Payload
Mass 2661.00 kg
Dry Mass 1108.00 kg
Total Mass 2661.00 kg
Length 3.50 m
Diameter 2.30 m
Span 26.30 m
Shape Box + 2 Pan
Manufacturer AESPC
Bus Type Spacebus 3000
Phase Status In Orbit
Owner/State ARAB/I-ARAB

Most Searched